Location: Branche des Alpilles
(43.6087°N, 4.6976°E)
Time: 16:33:32
(UTC+00:00)

USA 238 DEB - Pass Details

Date: 30 November 2020
Orbit: 996 x 1216 km, 63.4° (Epoch: 22 January)

Event Time Altitude Azimuth Distance (km) Brightness Sun altitude
Rises 17:44:44 0° 192° (SSW) 3,706 6.9 -17.4°
Reaches altitude 10° 17:47:24 10° 186° (S) 2,771 6.1 -17.9°
Maximum altitude 17:53:29 44° 116° (ESE) 1,397 4.0 -18.9°
Enters shadow 17:55:57 32° 70° (ENE) 1,723 4.2 -19.4°
